Flag for Vietnam Weather past 2 weeks in Ho Chi Minh, Vietnam

Now
79 °F

Passing clouds.


Feels Like: 82 °F
Forecast: 78 / 90 °F
Wind: 1 mph from Northwest

Location: Ho Chi Minh

Current Time: Aug 3, 2015 at 4:34:01 AM

Latest Report: Aug 3, 2015 at 4:00 AM


Visibility: N/A

Pressure: 29.80 "Hg

Humidity: 84%

Dew point: 73 °F

Location of Ho Chi MinhLocation

Historic Weather in Ho Chi Minh — Graph

°F

Ho Chi Minh temperature yesterday

Maximum temperature yesterday: 91 °F (at 3:00 PM)
Minimum temperature yesterday: 75 °F (at 12:30 AM)
Average temperature yesterday: 83 °F

Past Weeks' High & Low Weather Summary

 TemperatureHumidityPressure
High95 °F (Jul 22, 2:00 PM)94% (Jul 30, 6:30 PM)29.92 "Hg (Jul 30, 6:30 PM)
Low73 °F (Jul 28, 5:00 PM)41% (Jul 27, 1:30 PM)29.74 "Hg (Jul 19, 3:00 AM)
Average83 °F73%29.84 "Hg
* Reported Jul 19 3:00 AM — Aug 3 3:00 AM, Ho Chi Minh, Weather by CustomWeather, © 2015

Note: Actual official high and low records may vary slightly from our data, if they occured in-between our weather recording intervals... More about our weather records

Advertising

Ho Chi Minh weather history for previous 24 hours

 ConditionsComfort  
Time TempWeatherWind HumidityBarometerVisibility
3:00 AM
Mon, Aug 3
79 °FPassing clouds.2 mph84%29.80 "HgN/A
2:30 AM79 °FPassing clouds.2 mph84%29.80 "HgN/A
2:00 AM79 °FPassing clouds.2 mph84%29.80 "HgN/A
1:30 AM79 °FPassing clouds.3 mph84%29.83 "HgN/A
1:00 AM79 °FPassing clouds.5 mph84%29.83 "HgN/A
12:30 AM81 °FPassing clouds.6 mph79%29.83 "HgN/A
12:00 AM81 °FPassing clouds.7 mph79%29.83 "HgN/A
11:30 PM
Sun, Aug 2
82 °FPassing clouds.6 mph74%29.86 "HgN/A
11:00 PM82 °FPassing clouds.7 mph74%29.86 "HgN/A
10:30 PM82 °FPassing clouds.6 mph74%29.86 "HgN/A
10:00 PM82 °FPassing clouds.7 mph74%29.86 "HgN/A
9:30 PM82 °FPassing clouds.7 mph74%29.83 "HgN/A
9:00 PM82 °FPassing clouds.8 mph74%29.83 "HgN/A
8:30 PM82 °FPassing clouds.9 mph74%29.83 "HgN/A
8:00 PM84 °FPassing clouds.9 mph70%29.80 "HgN/A
7:30 PM84 °FPassing clouds.6 mph66%29.80 "HgN/A
7:00 PM86 °FPassing clouds.5 mph62%29.77 "HgN/A
6:30 PM86 °FPassing clouds.5 mph62%29.77 "HgN/A
6:00 PM88 °FScattered clouds.5 mph55%29.74 "HgN/A
5:30 PM90 °FScattered clouds.6 mph49%29.74 "HgN/A
5:00 PM90 °FScattered clouds.6 mph52%29.74 "HgN/A
4:30 PM91 °FScattered clouds.5 mph52%29.74 "HgN/A
4:00 PM91 °FScattered clouds.7 mph46%29.74 "HgN/A
3:30 PM91 °FScattered clouds.7 mph49%29.74 "HgN/A
3:00 PM91 °FScattered clouds.10 mph52%29.74 "HgN/A
2:30 PM90 °FScattered clouds.9 mph55%29.77 "HgN/A
2:00 PM90 °FScattered clouds.12 mph52%29.77 "HgN/A
1:30 PM90 °FScattered clouds.10 mph55%29.77 "HgN/A
1:00 PM90 °FScattered clouds.8 mph55%29.80 "HgN/A
12:30 PM90 °FScattered clouds.8 mph55%29.80 "HgN/A
12:00 PM88 °FScattered clouds.7 mph59%29.83 "HgN/A
11:30 AM88 °FScattered clouds.8 mph62%29.83 "HgN/A
11:00 AM88 °FScattered clouds.8 mph62%29.86 "HgN/A
10:30 AM88 °FScattered clouds.5 mph55%29.86 "HgN/A
10:00 AM86 °FScattered clouds.3 mph66%29.86 "HgN/A
9:30 AM86 °FScattered clouds.3 mph66%29.86 "HgN/A
9:00 AM84 °FScattered clouds.1 mph70%29.86 "HgN/A
8:30 AM82 °FScattered clouds.1 mph74%29.86 "HgN/A
8:00 AM81 °FScattered clouds.3 mph79%29.83 "Hg5 mi
7:30 AM79 °FScattered clouds.5 mph84%29.83 "Hg4 mi
7:00 AM77 °FScattered clouds.5 mph89%29.83 "Hg4 mi
6:30 AM77 °FFog.3 mph89%29.83 "Hg3 mi
6:00 AM77 °FBroken clouds.2 mph89%29.83 "Hg4 mi
5:30 AM77 °FPassing clouds.2 mph89%29.83 "Hg5 mi
5:00 AM77 °FPassing clouds.2 mph89%29.83 "Hg5 mi
4:30 AM77 °FPassing clouds.No wind89%29.83 "HgN/A
4:00 AM77 °FPassing clouds.3 mph89%29.83 "HgN/A
Weather by CustomWeather, © 2015

See weather overviewHow to use our weather pages